Wind_Speed
60 59 56 56 53 50 48 46 44 43 41 41 41 41 39 38 38 36 35 35 35 34 34 35 38 38 38 39 37 39 41 43 44 45 44 43 43 43 44 43 42 42 43
62 63 61 58 56 53 49 47 47 46 45 45 44 44 42 40 39 38 38 38 37 37 38 39 40 41 41 41 41 41 43 44 45 46 46 44 42 43 43 43 43 44 45
58 59 59 59 59 55 52 50 49 48 48 46 47 46 45 44 42 42 41 41 41 41 41 41 42 42 44 43 43 43 44 45 46 46 46 46 44 44 43 43 44 43 43
51 49 48 49 50 50 50 50 50 49 48 47 47 46 45 44 44 43 43 43 44 43 42 41 43 46 46 44 44 45 45 47 46 45 46 46 45 45 44 45 42 40 43
46 45 46 47 52 52 51 50 49 49 48 48 47 47 46 46 45 44 43 43 43 44 45 45 45 45 43 44 46 47 47 47 45 45 43 43 43 44 44 39 38 41 45
45 43 42 43 46 48 50 51 51 49 48 48 48 49 49 48 48 47 47 48 53 53 50 49 47 44 45 47 49 48 47 45 45 43 43 42 43 41 39 39 41 44 45
44 45 43 43 45 46 48 49 50 52 52 52 51 50 50 49 51 52 52 52 49 50 48 46 44 45 47 49 49 47 46 46 44 43 41 43 42 40 38 42 45 49 47
42 44 46 45 44 46 46 46 47 48 49 51 52 52 52 50 49 47 46 46 47 46 44 42 43 46 48 47 46 45 45 43 42 40 41 39 38 38 42 47 48 48 48
44 44 47 46 45 44 43 43 44 45 46 49 50 51 51 50 47 47 47 46 45 43 41 44 47 47 46 45 44 43 41 40 39 39 36 36 37 40 42 46 47 49 50
47 47 45 46 47 45 44 44 43 43 43 43 45 48 49 49 49 48 45 42 41 42 46 50 50 48 46 44 42 40 39 38 38 35 35 37 39 39 43 45 47 50 47
44 46 49 49 49 48 47 46 45 44 43 43 43 44 46 46 45 44 42 43 46 50 51 50 48 46 44 41 40 39 38 37 35 35 34 37 38 41 42 45 48 47 44
42 46 48 48 50 51 51 49 47 45 44 44 44 45 45 44 44 45 45 49 50 47 47 47 45 42 40 39 38 37 37 36 35 35 36 38 41 42 43 46 46 44 41
40 39 41 44 46 47 51 51 48 44 45 45 45 45 46 46 45 47 48 48 49 50 46 41 40 38 36 36 36 37 38 38 38 38 36 39 42 42 43 43 41 39 37
32 34 35 38 44 45 43 43 48 42 42 44 44 44 43 43 45 49 49 47 45 42 40 37 36 36 35 35 37 37 38 38 37 36 38 40 40 40 41 39 37 34 32
32 34 30 33 39 47 47 44 40 41 40 40 41 40 43 46 45 44 42 40 39 37 36 35 35 36 37 38 38 37 37 36 36 37 38 38 38 40 37 35 33 31 30
36 35 29 30 37 40 40 43 42 35 37 38 38 45 42 41 39 37 36 35 35 35 35 37 37 37 38 35 34 33 32 34 34 36 37 36 37 36 33 32 31 30 30
32 33 31 27 28 31 31 34 39 42 43 42 35 37 36 34 33 32 33 33 34 35 36 36 35 32 31 31 31 30 30 31 34 35 35 35 35 32 31 30 30 30 30
22 29 27 28 29 28 26 26 28 29 30 30 31 31 30 29 30 31 32 32 32 31 28 26 27 28 28 29 29 30 31 33 33 33 34 34 32 30 29 29 30 31 32
23 20 21 20 21 23 28 27 26 29 29 28 31 28 29 29 30 28 26 24 24 25 25 26 26 26 26 26 26 27 28 29 30 31 31 30 28 30 30 30 31 31 32
23 23 20 23 24 23 22 23 25 26 26 27 28 29 28 26 25 24 22 22 21 21 22 23 24 24 23 23 26 28 28 27 28 29 30 29 29 29 30 30 31 32 34
19 20 23 24 23 22 21 21 22 22 23 23 22 22 22 23 21 20 19 19 20 21 22 22 22 21 22 24 25 27 27 29 30 31 31 31 31 32 32 33 33 35 36
22 22 23 22 23 24 25 25 26 25 25 24 23 21 21 22 22 21 19 20 20 21 22 22 22 22 24 25 26 27 28 32 34 35 36 36 36 36 35 35 36 36 37
24 24 23 24 23 22 23 26 28 24 23 24 23 22 22 22 23 23 22 21 21 21 22 22 23 24 25 28 29 30 32 35 36 36 36 37 38 38 38 38 39 40 40
23 22 21 21 21 22 23 23 24 22 23 24 24 24 25 25 25 25 23 22 23 22 23 23 23 25 27 29 31 34 35 36 36 34 35 36 37 37 38 39 40 42 43
25 21 25 23 24 25 25 24 24 26 25 26 27 29 28 28 28 26 24 24 24 23 24 25 25 26 29 31 32 34 35 36 35 35 35 36 37 38 39 41 43 43 42
25 27 28 29 30 29 27 26 27 26 26 25 27 28 29 29 30 28 25 25 25 25 26 26 27 28 30 31 32 35 35 32 33 34 34 36 39 40 41 42 41 40 41
Wind_Direction
236 233 231 231 232 232 233 234 237 241 245 250 254 257 258 260 263 267 270 273 276 280 283 284 285 286 288 289 286 285 288 291 293 294 296 297 299 300 298 298 297 297 297
233 233 232 233 234 235 235 237 238 240 241 245 249 253 256 259 263 266 268 271 275 277 280 281 283 285 286 284 284 285 288 292 294 295 293 296 297 297 296 298 298 299 298
229 229 231 233 235 236 236 238 241 243 245 246 249 252 255 258 261 264 266 269 271 272 274 277 280 284 285 284 285 286 289 291 292 294 295 295 295 291 294 298 298 297 299
228 231 231 233 238 240 242 244 245 246 248 251 254 257 259 261 263 266 269 270 272 272 273 275 276 276 279 282 284 288 290 292 293 293 294 294 293 294 297 299 298 297 302
229 233 234 237 239 240 242 244 246 249 251 252 255 257 260 261 261 263 265 268 273 277 280 281 282 283 283 285 287 289 291 293 293 293 293 293 296 301 302 301 299 301 303
228 233 237 240 241 241 241 242 244 246 249 252 255 257 258 259 259 260 262 267 273 275 275 279 281 281 283 286 288 290 291 292 292 293 293 295 299 300 301 302 304 304 304
227 232 236 239 240 241 242 243 245 247 249 251 253 256 258 260 262 265 270 270 267 270 272 275 277 281 285 288 289 291 292 292 292 291 294 298 299 298 298 305 305 306 305
229 231 235 238 241 242 243 243 245 248 250 253 255 257 259 262 265 266 267 270 272 275 276 276 282 285 286 287 288 287 287 288 288 289 294 294 297 294 298 304 306 306 306
232 235 236 239 241 242 245 247 248 249 251 252 254 256 259 261 262 265 269 272 274 275 276 283 284 285 285 285 284 285 285 286 287 291 291 292 296 299 302 305 305 305 307
232 234 237 239 241 243 244 245 247 250 252 254 256 256 258 261 263 267 269 270 273 275 280 285 286 286 285 283 284 285 287 289 289 287 292 294 296 300 304 304 304 307 306
227 231 236 240 243 244 245 248 248 249 252 254 256 258 260 262 265 266 268 271 279 282 283 283 284 284 283 284 285 287 288 288 287 290 294 297 298 302 303 304 307 306 305
232 231 233 237 240 243 245 247 250 251 253 255 258 259 261 262 263 265 273 277 278 279 282 281 281 281 283 284 286 287 287 287 288 291 294 297 298 300 301 304 306 306 304
236 238 241 243 243 243 243 245 249 252 253 257 259 261 263 263 265 272 274 275 279 282 280 278 278 279 281 284 285 286 286 285 287 288 292 294 297 297 302 304 305 304 305
237 244 247 250 247 246 247 248 249 252 254 256 257 258 261 264 269 273 276 277 276 275 276 276 277 280 281 283 284 286 287 286 286 286 291 294 295 299 302 302 302 302 303
238 244 244 252 249 246 245 246 247 250 255 258 261 263 268 271 271 271 271 271 272 272 274 275 277 278 282 284 286 285 284 284 285 289 290 291 296 299 300 299 298 300 302
240 242 241 242 241 241 244 249 241 244 250 256 259 266 264 262 263 265 266 267 269 271 273 274 277 280 282 284 283 283 283 285 286 287 290 293 297 298 298 298 297 298 299
242 241 242 237 237 240 245 248 247 249 250 257 256 256 255 257 259 262 264 267 269 272 273 275 278 279 281 284 285 286 286 286 290 290 291 296 297 296 296 297 295 296 298
249 244 244 243 236 238 243 248 251 250 248 251 254 255 255 258 261 263 264 265 266 269 271 275 278 279 281 283 285 288 291 291 291 291 295 297 294 293 293 294 294 296 298
244 247 236 247 254 242 237 243 244 250 252 255 253 255 260 260 259 261 261 263 266 270 273 275 275 278 281 283 288 292 293 294 296 298 300 297 295 296 295 295 296 298 299
244 244 246 249 255 252 256 255 254 252 254 255 256 255 253 256 256 257 258 263 267 271 272 273 276 280 285 293 295 294 294 298 300 305 306 304 301 298 297 298 300 301 302
249 248 247 251 253 256 257 255 255 256 256 254 254 255 258 253 251 253 256 263 268 272 274 276 279 286 293 295 296 296 297 298 298 297 297 298 299 300 300 301 301 300 300
247 247 249 251 253 253 254 255 256 256 257 255 252 253 252 256 255 253 258 264 269 276 280 281 284 288 290 294 295 295 296 299 300 296 296 298 299 299 298 298 298 300 302
248 252 253 251 251 253 257 262 248 245 252 253 253 251 251 252 256 258 258 263 269 277 281 282 286 287 288 290 293 295 296 298 300 299 298 299 300 300 298 298 299 300 301
252 253 256 253 252 256 260 267 263 252 253 253 252 252 255 255 255 256 257 263 267 274 279 282 284 286 289 289 292 293 296 299 300 298 298 299 302 302 301 301 302 302 301
243 236 254 243 254 261 261 262 264 261 254 256 256 254 256 258 255 253 255 260 266 273 279 281 284 287 290 289 291 293 295 298 300 299 300 302 305 305 305 303 301 303 305
250 242 247 250 260 261 261 262 259 262 261 260 261 261 256 255 256 252 254 260 268 275 280 285 288 289 289 290 290 292 295 297 299 300 302 305 305 306 304 304 307 306 304
Height
5785 5792 5797 5803 5807 5811 5815 5818 5821 5824 5827 5830 5831 5833 5835 5836 5838 5838 5838 5838 5838 5838 5837 5836 5835 5833 5831 5829 5828 5825 5824 5821 5818 5817 5815 5812 5809 5807 5803 5800 5797 5793 5790
5776 5782 5787 5792 5797 5803 5807 5811 5814 5817 5820 5822 5824 5826 5828 5830 5831 5831 5831 5831 5831 5830 5830 5829 5827 5826 5824 5822 5820 5818 5816 5814 5810 5807 5805 5806 5804 5798 5794 5791 5788 5785 5781
5768 5773 5777 5782 5787 5793 5798 5802 5806 5809 5812 5814 5817 5820 5822 5824 5824 5824 5824 5824 5825 5824 5823 5822 5820 5818 5816 5814 5811 5809 5808 5806 5803 5799 5795 5794 5794 5790 5788 5784 5780 5776 5773
5764 5768 5773 5777 5782 5786 5790 5794 5797 5801 5804 5806 5808 5811 5813 5814 5815 5815 5815 5815 5814 5814 5814 5814 5812 5810 5807 5805 5803 5801 5799 5796 5793 5790 5786 5783 5782 5780 5780 5777 5771 5768 5764
5757 5761 5765 5769 5774 5778 5782 5785 5788 5792 5795 5797 5800 5802 5803 5805 5805 5806 5806 5805 5804 5804 5802 5801 5799 5797 5796 5795 5793 5791 5788 5786 5784 5781 5778 5775 5772 5769 5766 5766 5763 5759 5755
5748 5752 5757 5760 5764 5768 5772 5776 5780 5783 5786 5788 5790 5792 5794 5795 5796 5797 5797 5796 5796 5795 5793 5791 5789 5788 5787 5785 5783 5781 5778 5776 5774 5771 5768 5765 5762 5759 5756 5754 5753 5750 5746
5740 5745 5748 5751 5754 5758 5763 5767 5770 5773 5776 5778 5780 5782 5783 5784 5785 5786 5786 5786 5786 5786 5785 5783 5782 5780 5778 5776 5773 5770 5767 5765 5763 5761 5758 5755 5752 5749 5748 5745 5743 5740 5735
5732 5736 5739 5743 5746 5749 5753 5756 5760 5763 5765 5767 5769 5771 5773 5774 5774 5775 5775 5775 5775 5775 5774 5773 5772 5770 5768 5766 5763 5761 5758 5756 5754 5751 5749 5746 5743 5741 5738 5735 5732 5729 5724
5723 5726 5730 5735 5738 5742 5744 5747 5750 5752 5754 5757 5759 5760 5762 5763 5764 5765 5764 5765 5765 5765 5764 5764 5763 5761 5759 5756 5754 5752 5750 5747 5745 5743 5740 5738 5735 5732 5729 5725 5721 5716 5712
5713 5717 5722 5725 5728 5731 5734 5737 5740 5743 5745 5746 5748 5750 5752 5753 5754 5755 5755 5755 5755 5755 5754 5753 5752 5750 5748 5746 5743 5741 5739 5737 5736 5733 5732 5729 5726 5723 5720 5716 5711 5705 5700
5703 5707 5712 5715 5718 5720 5724 5728 5731 5733 5735 5737 5738 5740 5742 5743 5745 5746 5746 5746 5745 5744 5744 5742 5741 5739 5738 5736 5733 5731 5729 5728 5726 5724 5722 5720 5717 5714 5710 5706 5701 5695 5690
5695 5697 5701 5705 5708 5711 5715 5717 5720 5723 5725 5727 5729 5731 5733 5734 5735 5736 5737 5736 5736 5734 5733 5732 5730 5729 5727 5726 5724 5722 5721 5719 5717 5715 5713 5711 5708 5704 5701 5696 5691 5686 5681
5688 5691 5694 5696 5699 5701 5704 5708 5711 5713 5715 5717 5719 5721 5723 5725 5726 5726 5727 5727 5726 5725 5723 5722 5721 5720 5718 5717 5715 5714 5712 5710 5709 5707 5704 5702 5699 5695 5691 5686 5681 5677 5673
5679 5682 5685 5688 5691 5693 5695 5698 5701 5704 5707 5709 5710 5712 5713 5715 5716 5717 5717 5716 5715 5714 5714 5713 5712 5711 5710 5708 5707 5705 5704 5702 5700 5698 5695 5693 5690 5686 5681 5677 5673 5669 5666
5673 5676 5677 5680 5682 5684 5687 5689 5692 5695 5697 5699 5702 5703 5703 5704 5706 5705 5705 5705 5705 5705 5705 5704 5703 5702 5701 5700 5698 5696 5694 5692 5690 5688 5686 5684 5680 5677 5673 5669 5665 5662 5659
5666 5667 5669 5669 5672 5675 5677 5680 5683 5685 5688 5690 5691 5693 5695 5694 5694 5695 5695 5695 5696 5696 5696 5695 5694 5693 5692 5690 5689 5687 5685 5684 5682 5680 5677 5674 5671 5667 5664 5661 5658 5655 5652
5658 5660 5661 5662 5664 5667 5669 5671 5673 5676 5678 5680 5682 5684 5685 5685 5686 5686 5686 5687 5687 5687 5687 5686 5685 5684 5684 5682 5681 5679 5677 5676 5674 5671 5668 5665 5661 5658 5655 5653 5650 5647 5644
5652 5653 5654 5656 5657 5659 5662 5664 5666 5668 5670 5672 5674 5675 5676 5676 5677 5678 5678 5678 5678 5678 5677 5677 5677 5677 5676 5675 5673 5671 5669 5668 5665 5662 5659 5656 5653 5650 5648 5645 5642 5639 5635
5648 5649 5650 5651 5651 5653 5655 5657 5658 5661 5662 5664 5666 5667 5668 5669 5669 5670 5670 5670 5670 5670 5670 5670 5669 5669 5668 5667 5665 5663 5662 5660 5657 5654 5651 5648 5645 5643 5639 5637 5634 5630 5627
5642 5643 5644 5646 5647 5648 5650 5651 5653 5654 5655 5657 5658 5659 5660 5660 5661 5662 5662 5663 5663 5663 5663 5663 5663 5661 5661 5659 5658 5656 5654 5652 5650 5648 5645 5641 5638 5635 5632 5629 5626 5622 5618
5636 5637 5639 5641 5642 5643 5644 5645 5646 5647 5648 5649 5650 5651 5652 5654 5654 5655 5656 5656 5657 5657 5657 5656 5656 5654 5652 5651 5650 5649 5647 5645 5643 5641 5638 5634 5631 5628 5625 5621 5617 5613 5609
5631 5632 5634 5635 5637 5638 5639 5639 5640 5641 5642 5643 5644 5644 5646 5648 5649 5648 5649 5650 5651 5650 5649 5649 5648 5646 5645 5644 5643 5641 5640 5638 5636 5633 5629 5626 5622 5619 5615 5611 5607 5603 5599
5625 5626 5628 5629 5630 5632 5632 5632 5632 5633 5635 5637 5637 5639 5640 5641 5642 5642 5643 5643 5643 5643 5642 5641 5640 5639 5638 5637 5636 5634 5632 5630 5627 5624 5620 5617 5613 5609 5605 5601 5597 5593 5589
5619 5620 5622 5623 5624 5625 5625 5626 5626 5627 5628 5630 5631 5632 5634 5634 5635 5635 5636 5636 5636 5636 5635 5634 5633 5632 5631 5630 5628 5626 5624 5621 5617 5614 5611 5607 5604 5599 5595 5591 5587 5582 5578
5614 5615 5616 5616 5618 5619 5619 5620 5620 5621 5621 5623 5624 5625 5626 5626 5627 5627 5628 5629 5629 5628 5628 5626 5625 5624 5623 5621 5619 5617 5615 5612 5609 5605 5602 5598 5594 5590 5586 5581 5576 5572 5567
5607 5608 5609 5610 5611 5612 5612 5613 5613 5614 5615 5615 5616 5617 5617 5617 5618 5619 5620 5620 5620 5620 5620 5619 5617 5615 5614 5613 5611 5609 5606 5603 5600 5596 5592 5589 5584 5580 5575 5570 5566 5562 5557